Location: Unspecified
(45.4615°N, 74.0512°W)
Time: 21:56:51
(UTC-04:00)

Resurs 1-4 Rocket - Visible Passes

Search period start: 23 April 2019 00:00
Search period end: 03 May 2019 00:00
Orbit: 799 x 815 km, 98.6° (Epoch: 22 April)

Date Brightness Start Highest point End Pass type
(mag) Time Alt. Az. Time Alt. Az. Time Alt. Az.
23 Apr 4.2 01:27:05 10° NE 01:30:07 16° E 01:30:07 16° E visible
23 Apr 2.0 03:05:21 10° N 03:10:36 73° WNW 03:11:12 65° WSW visible
23 Apr 4.1 04:47:39 10° NNW 04:49:31 12° NW 04:51:22 10° WNW visible
24 Apr 2.1 02:40:45 10° NNE 02:46:01 71° ESE 02:46:24 68° SE visible
24 Apr 3.8 04:21:46 10° NNW 04:25:18 18° WNW 04:27:29 14° W visible
25 Apr 2.8 02:16:20 10° NNE 02:21:20 43° E 02:21:36 43° ESE visible
25 Apr 3.2 03:56:33 10° N 04:00:58 28° WNW 04:02:41 23° W visible
26 Apr 3.5 01:52:09 10° NE 01:56:35 27° E 01:56:48 26° E visible
26 Apr 2.6 03:31:36 10° N 03:36:34 44° WNW 03:37:53 37° WSW visible
27 Apr 4.1 01:28:28 10° NE 01:31:43 16° E 01:31:59 16° E visible
27 Apr 2.1 03:06:49 10° N 03:12:04 71° WNW 03:13:05 56° SW visible
27 Apr 4.2 04:49:17 10° NW 04:50:58 11° NW 04:52:38 10° WNW visible
28 Apr 2.1 02:42:13 10° NNE 02:47:29 73° ESE 02:48:16 62° SSE visible
28 Apr 3.8 04:23:18 10° NNW 04:26:44 18° WNW 04:29:21 13° W visible
29 Apr 2.7 02:17:47 10° NNE 02:22:49 44° E 02:23:28 42° ESE visible
29 Apr 3.3 03:58:03 10° N 04:02:26 27° WNW 04:04:33 21° W visible
30 Apr 3.5 01:53:36 10° NE 01:58:04 27° E 01:58:39 27° ESE visible
30 Apr 2.7 03:33:05 10° N 03:38:02 42° WNW 03:39:45 32° WSW visible
01 May 4.1 01:29:51 10° NE 01:33:13 17° E 01:33:51 17° E visible
01 May 2.1 03:08:19 10° N 03:13:33 68° WNW 03:14:55 48° SW visible
01 May 4.2 04:50:55 10° NW 04:52:24 11° NW 04:53:53 10° WNW visible
02 May 2.1 02:43:41 10° NNE 02:48:58 75° ESE 02:50:07 54° S visible
02 May 3.9 04:24:49 10° NNW 04:28:11 17° WNW 04:31:12 11° W visible
